Regional Weather Roundup
Issued by NWS

Home | Current Version | Previous Version | Text Only | Print | Product List | Glossary On
Versions: 1 2 3 4 5 6 7 8 9 10 11 12 13 14 15 16 17 18 19 20 21 22 23 24 25 26 27 28 29 30 31 32 33 34 35 36 37 38 39 40 41 42 43 44 45 46 47 48 49 50
422
ASUS44 KFWD 242015
RWRTX
NORTH TEXAS HOURLY WEATHER ROUNDUP
NATIONAL WEATHER SERVICE FORT WORTH TX
200 PM CST FRI NOV 24 2017

NOTE: "FAIR" INDICATES FEW OR NO CLOUDS BELOW 12,000 FEET WITH NO
SIGNIFICANT WEATHER AND/OR OBSTRUCTIONS TO VISIBILITY.

TXZ118-119-242100-
DALLAS/FORT WORTH METROPLEX

CITY           SKY/WX    TMP DP  RH WIND       PRES   REMARKS
DFW AIRPORT    MOSUNNY   77  36  22 S15       29.81F
DALLAS LOVE    PTSUNNY   75  37  25 SE12      29.83F
FTW MEACHAM    MOSUNNY   79  39  23 S15G23    29.81F
DAL-EXECUTIVE  MOSUNNY   74  35  24 S9G16     29.83F
FTW-NAS-JRB    MOSUNNY   79  36  21 S16G22    29.81F
FTW-SPINKS     SUNNY     75  37  25 S9        29.84F
ARLINGTON      MOSUNNY   77  35  21 S12G20    29.83F
GRAND PRAIRIE  SUNNY     75  36  23 S12G20    29.84F
ADDISON        SUNNY     75  36  23 S15       29.83F
MESQUITE       SUNNY     73  36  25 SE14G20   29.84F
LANCASTER      MOSUNNY   72  36  26 S13       29.85F
$$

TXZ091>094-102>105-117-120-121-131>134-242100-
NORTH CENTRAL TEXAS

CITY           SKY/WX    TMP DP  RH WIND       PRES   REMARKS
SHRMAN/DENISON SUNNY     76  34  21 S15       29.81F
GAINESVILLE    SUNNY     77  33  19 S17       29.80F
BOWIE          SUNNY     79  33  19 S17G24    29.77F
BRIDGEPORT     SUNNY     79  33  19 S15G21    29.80F
DECATUR        SUNNY     78  31  18 S12G18    29.78F
DENTON         SUNNY     76  37  24 S16       29.80F
MCKINNEY       SUNNY     73  39  29 S15       29.83F
BONHAM         SUNNY     74  34  23 SW15      29.83F
GREENVILLE     SUNNY    N/A N/A N/A S13       29.86F
ROCKWALL       SUNNY     73  39  28 S13G20    29.85F
TERRELL        SUNNY     73  35  25 S14       29.85F
WAXAHACHIE     MOSUNNY   78  40  25 S16       29.85F
CLEBURNE       LGT RAIN  75  36  23 SW12G20   29.85F
GRANBURY       SUNNY     80  36  20 S12G21    29.83F
$$

TXZ083>090-098>101-113>116-127>130-139>142-154-155-242100-
WESTERN NORTH TEXAS

CITY           SKY/WX    TMP DP  RH WIND       PRES   REMARKS
WICHITA FALLS  SUNNY     80  37  21 S16       29.74F
WF-KICKAPOO    SUNNY     79  38  22 S9G20     29.77F
VERNON         SUNNY     83  22  11 S17G25    29.72F
ABILENE        SUNNY     75  37  25 S16G25    29.81F
ABILENE-DYESS  SUNNY     78  41  25 S16G22    29.79F
GRAHAM           N/A     82  34  17 S9G17     29.76F
BRECKENRIDGE   SUNNY     81  31  16 SW13G20   29.79F HAZE
CISCO          SUNNY     77  34  20 S12G20    29.83F
EASTLAND       SUNNY     77  35  21 S13       29.81F
RANGER         SUNNY     76  34  21 S16G22    29.82F
MINERAL WELLS  SUNNY     80  32  17 S12       29.79F
STEPHENVILLE   SUNNY     78  32  18 S13G18    29.86F
COMANCHE       MOSUNNY   77  38  24 SW16      29.84F
BROWNWOOD      SUNNY     77  32  19 S12       29.83F
COLEMAN        SUNNY     79  33  19 S13G20    29.84F
$$

TXZ143>147-156>162-174-175-242100-
CENTRAL TEXAS

CITY           SKY/WX    TMP DP  RH WIND       PRES   REMARKS
WACO           SUNNY     76  38  25 S14       29.87F
WACO-TSTC      SUNNY     75  36  23 S10G20    29.87F
WACO-MCGREGOR  SUNNY     77  40  26 S14       29.87F
HILLSBORO      SUNNY     74  40  28 S12G22    29.85F
CORSICANA      SUNNY     76  37  24 S14       29.88F
MEXIA          SUNNY     74  35  24 S16G22    29.88F
HEARNE         SUNNY     73  37  26 S10G17    29.92F
CAMERON        SUNNY     74  37  25 S12G17    29.90F
KILLEEN        MOSUNNY   77  34  21 SE15G21   29.85F
KILLEEN-SKYLRK SUNNY     75  36  24 S16       29.87F
FORT HOOD      SUNNY     76  34  22 S13G20    29.83F
GATESVILLE     SUNNY     77  34  20 S12G17    29.87F
HAMILTON       SUNNY     78  34  20 SW17      29.85F
LAMPASAS       SUNNY     78  38  24 S10       29.86F
$$

TXZ095>097-106>112-122>126-135>138-148>153-164>167-242100-
EAST TEXAS

CITY           SKY/WX    TMP DP  RH WIND       PRES   REMARKS
PARIS          SUNNY     74  37  26 SW17      29.85
SULPHUR SPRNGS SUNNY     74  34  23 S12       29.88F
MOUNT PLEASANT SUNNY     71  36  28 S12       29.88F
GILMER         SUNNY     70  37  29 S8G16     29.88F
MINEOLA        SUNNY     73  36  25 S12       29.86F
TYLER          SUNNY     71  35  26 S16       29.89F
LONGVIEW       SUNNY     71  39  31 S12       29.90F
MARSHALL       SUNNY     70  36  28 S6        29.93F
ATHENS         SUNNY     70  36  28 S13       29.87F
PALESTINE      SUNNY     70  37  29 S9G16     29.92F
JACKSONVILLE   SUNNY     69  38  32 S9        29.94F
HENDERSON      SUNNY     70  38  30 S8        29.92F
CENTER         CLEAR     68  33  27 S5        29.94F
NACOGDOCHES    SUNNY     68  40  35 S6        29.94F
LUFKIN         SUNNY     69  39  33 S7        29.94F
$$

SUPPLEMENTAL OBSERVATIONS (NWS FORT WORTH AREA)

CITY           SKY/WX    TMP DP  RH WIND       PRES   REMARKS
DENISON DAM      N/A     75  32  20 S10         N/A
CADDO GRASSLND   N/A     75  34  22 S10         N/A
PAT MAYSE LAKE   N/A     70  32  24 SE15        N/A
GREENVILLE       N/A     73  34  23 S13         N/A
CEDAR HILL       N/A     75  32  20 S9G20       N/A
LBJ GRASSLAND    N/A     81  32  17 S13         N/A
POSSUM KINGDOM   N/A     81  34  18 S14         N/A
GRANBURY         N/A     81  36  19 S13G21      N/A
COMANCHE         N/A     79  34  19 SW13        N/A
MCGREGOR         N/A     77  37  24 S9G20       N/A
TEMPLE           N/A     77  37  24 S10G18      N/A
LAKE LIMESTONE   N/A     73  36  25 S13         N/A
ATHENS           N/A     72  37  28 S10         N/A
$$

SUPPLEMENTAL OBSERVATIONS (NWS NORMAN AREA)

CITY           SKY/WX    TMP DP  RH WIND       PRES   REMARKS
GOODLETT         N/A     82  31  15 S20       29.71R
ODELL            N/A     81  36  19 S18       29.71F
CROWELL          N/A     83  37  19 S17       29.71F
KNOX CITY        N/A     82  31  16 S20       29.73F
SEYMOUR          N/A     80  34  19 S16       29.74F
MILLERS CREEK    N/A     79  39  24 S15         N/A
$$

SUPPLEMENTAL OBSERVATIONS (NWS SAN ANGELO AREA)

CITY           SKY/WX    TMP DP  RH WIND       PRES   REMARKS
WEINERT          N/A     82  37  19 S18       29.75F
HASKELL          N/A     82  30  15 S16G23    29.75F
THROCKMORTON     N/A     82  39  21 S14       29.77F
STAMFORD         N/A     80  38  22 S16       29.77F
CLYDE            N/A     76  37  24 S16       29.83F
HAMBY            N/A     79  37  22 S17         N/A
IVIE RESERVOIR   N/A     81  34  18 SW15        N/A
COLORADO BEND    N/A     73  34  23 S8G17       N/A
$$

SUPPLEMENTAL OBSERVATIONS (NWS SHREVEPORT AREA)

CITY           SKY/WX    TMP DP  RH WIND       PRES   REMARKS
CLARKSVILLE      N/A     75  34  22 S14         N/A
TEXARKANA        N/A     72  36  26 S6          N/A
LINDEN           N/A     73  36  25 SW3G14      N/A
CADDO LAKE       N/A     73  36  25 S3          N/A
GILMER           N/A     72  36  26 S9          N/A
HENDERSON        N/A     72  36  26 S9          N/A
LUFKIN           N/A     72  39  30 MISG        N/A
N SABINE NF      N/A     70  39  32 MISG        N/A
S SABINE NF      N/A     70  45  40 E3          N/A
$$

SUPPLEMENTAL OBSERVATIONS ARE A COLLECTION OF AUTOMATED INSTRUMENTS
THAT ARE MAINTAINED BY A VARIETY OF FEDERAL AND STATE AGENCIES.
CERTAIN ELEMENTS...SUCH AS HUMIDITY VALUES AND SUSTAINED WIND
SPEEDS...MAY BE APPROXIMATED.





USA.gov is the U.S. government's official web portal to all federal, state and local government web resources and services.